SR2WXM Weather Reports


Display with metric or nautical units.
time (UTC)temp
F
wind
direction
speed
MPH
gust
MPH
rain 1hr
in
rain 24hr
in
rain mn
in
humidity
%
barometer
mb
20260504081502 73 221 3.0 4.0 0.00 0.00 0.00 43 1010.5
20260504050002 57 234 4.0 7.0 0.00 0.00 0.00 57 1009.4
20260504044502 57 145 4.0 7.0 0.00 0.00 0.00 58 1009.4
20260504043003 57 189 6.0 6.0 0.00 0.00 0.00 58 1009.1
20260504041502 57 222 4.0 6.0 0.00 0.00 0.00 58 1009.1
20260504040002 57 215 3.0 3.0 0.00 0.00 0.00 60 1009.1
20260504034502 57 192 4.0 9.0 0.00 0.00 0.00 59 1009.1
20260504033003 55 208 3.0 5.0 0.00 0.00 0.00 61 1009.1
20260504031503 55 207 1.0 3.0 0.00 0.00 0.00 61 1009.1
20260504030002 55 189 3.0 8.0 0.00 0.00 0.00 60 1009.4
20260504024502 55 181 3.0 3.0 0.00 0.00 0.00 61 1009.1
20260504023003 57 206 3.0 5.0 0.00 0.00 0.00 59 1009.4
20260504021502 57 226 2.0 4.0 0.00 0.00 0.00 58 1009.1
20260504020002 57 222 2.0 3.0 0.00 0.00 0.00 58 1009.1
20260504014502 57 217 3.0 4.0 0.00 0.00 0.00 57 1009.1
20260504013003 57 205 3.0 4.0 0.00 0.00 0.00 56 1009.4
20260504011503 57 204 3.0 3.0 0.00 0.00 0.00 56 1009.4
20260504010002 57 189 4.0 5.0 0.00 0.00 0.00 55 1009.4
20260504004503 57 201 4.0 4.0 0.00 0.00 0.00 55 1009.4
20260504003002 57 180 2.0 5.0 0.00 0.00 0.00 54 1009.4
20260504001503 59 183 4.0 4.0 0.00 0.00 0.00 53 1009.1
20260504000001 59 222 2.0 2.0 0.00 0.00 0.00 53 1009.4
20260503234502 59 198 3.0 5.0 0.00 0.00 0.00 51 1009.4
20260503233002 59 188 3.0 3.0 0.00 0.00 0.00 52 1009.4
20260503231502 59 188 3.0 4.0 0.00 0.00 0.00 52 1009.4
20260503230003 57 218 2.0 2.0 0.00 0.00 0.00 53 1009.4
20260503224502 59 179 2.0 4.0 0.00 0.00 0.00 52 1009.4
20260503223001 59 224 3.0 3.0 0.00 0.00 0.00 49 1009.4
20260503221503 59 210 2.0 2.0 0.00 0.00 0.00 49 1009.4
20260503220002 59 175 3.0 3.0 0.00 0.00 0.00 48 1009.4
20260503214502 60 227 1.0 1.0 0.00 0.00 0.00 47 1009.8
20260503213003 60 200 1.0 3.0 0.00 0.00 0.00 46 1009.8
20260503211502 60 186 2.0 2.0 0.00 0.00 0.00 45 1009.8
20260503210002 62 182 2.0 3.0 0.00 0.00 0.00 44 1009.8
20260503204502 62 203 1.0 3.0 0.00 0.00 0.00 43 1009.8
20260503203003 62 209 2.0 3.0 0.00 0.00 0.00 40 1009.8
20260503201502 64 200 3.0 3.0 0.00 0.00 0.00 38 1009.8
20260503200004 64 223 2.0 3.0 0.00 0.00 0.00 37 1009.8
20260503194503 64 193 1.0 2.0 0.00 0.00 0.00 35 1009.8
20260503193002 66 212 1.0 2.0 0.00 0.00 0.00 33 1009.8
20260503191502 66 213 1.0 1.0 0.00 0.00 0.00 33 1009.8
20260503190004 66 208 1.0 1.0 0.00 0.00 0.00 31 1009.8
20260503184503 68 179 2.0 3.0 0.00 0.00 0.00 31 1009.8
20260503183001 69 217 1.0 1.0 0.00 0.00 0.00 30 1009.8
20260503181503 69 208 1.0 1.0 0.00 0.00 0.00 29 1009.8
20260503180002 71 210 2.0 3.0 0.00 0.00 0.00 27 1009.4
20260503174503 73 211 1.0 3.0 0.00 0.00 0.00 28 1009.4
20260503173002 73 205 3.0 3.0 0.00 0.00 0.00 26 1009.4
20260503171501 75 200 3.0 6.0 0.00 0.00 0.00 24 1009.4